Quad City International Airport Moline US
ICAO: KMLI
IATA: MLI
Category: Large
Scheduled Services: Yes

Elevation: 590 ft
TransAlt. 18000 ft.

Airport Communications:
APP/DEP:118.2
ATIS:121.2
CLNC DEL:123.95
CTAF:119.4
GND:121.9
KANKAKEE RDO:122.6
TWR:119.4
UNICOM:122.95

KMLI Zoom In..

If you have problems with the map follow the link
https://www.worldairports.se/pages/airport.php?
ICAO=KMLI

Runways:

(A) RW 05 length 5015 ft width 150 ft
---- / hdg 48

(B) RW 09 length 10002 ft width 150 ft
ILS 110.50 / hdg 90

(C) RW 13 length 7301 ft width 150 ft
---- / hdg 126

(D) RW 23 length 5015 ft width 150 ft
---- / hdg 228

(E) RW 27 length 10002 ft width 150 ft
ILS 110.50 / hdg 270

(F) RW 31 length 7301 ft width 150 ft
---- / hdg 306

Location; KMLI
Day. 16 / Time. 11.52 Zulu
* Altimeter: 29.94
* Temperature: 03° c. 37.4°f.
* Wind from: 300° Speed 13 kn with Gusts up to 24 kn.
Dewpoint: -01° c.
Visibility: 10 Statute Miles.
Clouds: Overcast 1700 ft.

KMLI 161152Z 30013G24KT 10SM OVC017 03/M01 A2994 RMK AO2 PK WND 31030/1055 SLP143 T00281011 10050 20006 53035


Wind From 300°
Speed 13 kn.

 
 
jpsmedia.com for Web Design worldairports.se 2018   terms of use